Weather Roundup
Issued by NWS Chicago, IL

Home | Current Version | Previous Version | Text Only | Print | Product List | Glossary On
Versions: 1 2 3 4 5 6 7 8 9 10 11 12 13 14 15 16 17 18 19 20 21 22 23 24 25 26 27 28 29 30 31 32 33 34 35 36 37 38 39 40 41 42 43 44 45 46 47 48 49 50
327
NZUS59 KLOT 161708
HRRLOT

CHICAGO AREA WEATHER ROUNDUP
NATIONAL WEATHER SERVICE CHICAGO/ROMEOVILLE IL
1100 AM CST SAT DEC 16 2017

NOTE: "FAIR" INDICATES FEW OR NO CLOUDS BELOW 12,000 FEET WITH NO
SIGNIFICANT WEATHER AND/OR OBSTRUCTIONS TO VISIBILITY.

* THESE STATIONS ARE NOT UNDER NWS QUALITY CONTROL. THEY ALSO MAY NOT
  REPORT WEATHER SUCH AS PRECIPITATION OR FOG.

ILZ005-006-012>014-019>023-161800-
NORTHEAST ILLINOIS

CITY           SKY/WX    TMP DP  RH WIND       PRES   REMARKS
OHARE          MOSUNNY   41  25  53 SW10      29.89F
MIDWAY         MOSUNNY   42  26  53 SW9       29.91S
AURORA         SUNNY     41  26  55 SW9       29.89F
LANSING*       SUNNY     42  28  58 W9        29.92F
JOLIET*        SUNNY     44  27  52 SW8       29.91F
WAUKEGAN       SUNNY     40  26  57 VRB5      29.88S
DUPAGE AIRPORT SUNNY     40  27  59 SW8       29.89S
WHEELING       SUNNY     42  27  55 SW7       29.90F
KANKAKEE*      SUNNY     44  26  47 SW17      29.94F
MORRIS*        SUNNY     44  26  50 SW12      29.90F
LEWIS AIRPORT* SUNNY     42  27  55 SW9       29.90F
NORTHERLY ISL    N/A     40  24  53 W10         N/A
$$

WIZ051-052-058>065-066-070>072-161800-
SOUTHEAST WISCONSIN

CITY           SKY/WX    TMP DP  RH WIND       PRES   REMARKS
MILWAUKEE      MOSUNNY   39  27  62 NE9       29.88S
KENOSHA*       SUNNY     40  25  55 SW3       29.88S
RACINE*        MOSUNNY   40  26  57 CALM      29.90S
BURLINGTON     SUNNY     47  36  64 CALM      29.87S
WAUKESHA       CLOUDY    34  28  80 NE12      29.89S WCI  25
WEST BEND      CLOUDY    30  30 100 E15       29.90S WCI  19
$$

INZ001>003-010>013-019-020-161800-
NORTHWEST INDIANA

CITY           SKY/WX    TMP DP  RH WIND       PRES   REMARKS
GARY*          SUNNY     43  23  45 W9        29.92F
MICHIGAN CITY* NOT AVBL
RENSSELAER*    NOT AVBL
VALPARAISO     SUNNY     42  27  55 SW12      29.93F
$$

LMZ740>746-161800-
SOUTHERN LAKE MICHIGAN

STATION/POSITION TIME  SKY/WX   TEMP WIND        PRES    VSBY
                                AIR  DIR/SP/G
                 (UTC)          (F)  (DEG/KT/KT) (MB)    (MI)
HARRISON CRIB    1640            40  240/  6/  9   N/A
BURNHAM HARBOR   1700            40  240/ 12/ 13   N/A
CALUMET HARBOR   1648            41  220/  7/ 11 1012.3F
BURNS HARBOR     1640            40  220/ 10/ 15 1013.9F
MICHIGAN CITY    1640            39  200/  9/ 11   N/A
$$

ABBREVIATIONS USED IN REMARKS
   TC - TEMPERATURE IN CELSIUS
  WCI - WIND CHILL INDEX
   HX - HEAT INDEX
  VSB - VISIBILITY
$$




USA.gov is the U.S. government's official web portal to all federal, state and local government web resources and services.